Search flights

Manises Airport, Valencia (LEVC)

Meteorología aeropuerto y NOTAMs

METAR for:LEVC (Valencia Arpt, VC, ES)
Text:LEVC 242030Z 04008KT 360V100 CAVOK 28/19 Q1014 NOSIG
Conditions at:2030 UTC 24 Jul 2024
Temperature: 28.0°C ( 82°F)
Dewpoint: 19.0°C ( 66°F) [RH = 58%]
Pressure (altimeter):29.94 inches Hg (1014.0 mb)
Winds:from the NE (40 degrees) at 9 MPH (8 knots; 4.1 m/s)
Visibility:6 or more sm (10+ km)
Ceiling:ceiling and visibility are OK
Clouds:unknown
TAF for:LEVC (Valencia Arpt, VC, ES) issued at 1700 UTC 24 Jul 2024
Text:TAF LEVC 241700Z 2418/2518 07009KT CAVOK TX32/2513Z TN23/2505Z
Forecast period:1800 to 2200 UTC 24 July 2024
Forecast type:FROM: standard forecast or significant change
Winds:from the ENE (70 degrees) at 10 MPH (9 knots; 4.6 m/s)
Visibility:6 or more sm (10+ km)
Clouds:missing
Temperature:MAX 32°C at 1300 UTC 25 Jul 2024
Temperature:MIN 23°C at 0500 UTC 25 Jul 2024
Text:BECMG 2422/2424 VRB04KT
Forecast period:2200 UTC 24 July 2024 to 0800 UTC 25 July 2024
Forecast type:BECOMING: Conditions expected to become as follows by 0000 UTC 25 July 2024
Winds:variable direction winds at 5 MPH (4 knots; 2.1 m/s)
Visibility:6 or more sm (10+ km)
Clouds:missing
Text:TEMPO 2504/2506 BKN015
Forecast period:0400 to 0600 UTC 25 July 2024
Forecast type:TEMPORARY: The following changes expected for less than half the time period
Ceiling:1500 feet AGL
Clouds:broken clouds at 1500 feet AGL
Text:BECMG 2508/2510 07009KT
Forecast period:0800 to 1800 UTC 25 July 2024
Forecast type:BECOMING: Conditions expected to become as follows by 1000 UTC 25 July 2024
Winds:from the ENE (70 degrees) at 10 MPH (9 knots; 4.6 m/s)
Visibility:6 or more sm (10+ km)
Clouds:missing
Text:TEMPO 2513/2516 07015G25KT
Forecast period:1300 to 1600 UTC 25 July 2024
Forecast type:TEMPORARY: The following changes expected for less than half the time period
Winds:from the ENE (70 degrees) at 17 MPH (15 knots; 7.7 m/s) gusting to 29 MPH (25 knots; 12.9 m/s)

Salidas y llegadas actuales

En este momento no hay salidas ni llegadas a este aeropuerto

Historial de salidas (últimos 12 meses)

Nº vuelo. Destino Aeronave Fecha
FNX403 LMML PMDG 737-8... 2024-07-22 10:36:27
FNX403 LERS PMDG 737-8... 2024-07-13 14:33:37
FNX403 LEIB PMDG 737-8... 2024-07-11 16:08:28
FNX403 LEMG PMDG 737-8... 2024-07-09 10:47:22
FNX202 LEPA PMDG 737-8... 2024-07-03 18:31:47
FNX408 LEIB ProSimA322... 2024-06-28 20:32:14
FNX213 LEZL FNX_320_IA... 2024-06-24 15:55:30
FNX403 LEMH PMDG 737-8... 2024-06-13 08:45:51
FNX403 EBBR PMDG 737-8... 2024-06-12 08:44:54
FNX209 LEIB Boeing B73... 2024-06-09 19:09:35
FNX310 LEIB FenixA320... 2024-05-18 22:24:25
FNXIE09 LEAS Fenix A320... 2024-05-07 21:46:27
FNXIE09 LEAS Fenix A320... 2024-05-07 16:29:18
FNXIE09 LEAS Fenix A320... 2024-05-07 06:38:56
FNXPARTN20 LEAS TBM 930 As... 2024-04-27 09:13:02
FNXPARTN20 LEAS PMDG 737-8... 2024-04-01 22:41:42
FNX205 LEAS PMDG 737-8... 2024-03-23 20:14:35
FNXIE09 LEAS PMDG 737-8... 2024-03-22 09:12:46
FNX209 LEIB 737NG Seri... 2024-03-17 12:29:39
FNX209 LEZL 737NG Seri... 2024-03-14 07:25:43
FNX03LIG LEJR Fenix A320... 2024-03-12 09:11:00
FNXBAFA02 LEPA PMDG 737-8... 2024-03-06 11:32:34
FNXBAFA02 LEPA B737-800 2024-03-05 12:14:00
FNXBAFA02 LEPA PMDG 737-8... 2024-03-05 12:17:02
FNXBAFA02 LEPA PMDG 737-8... 2024-03-04 20:08:02
FNXBAFA02 LEPA Fly The Ma... 2024-03-04 17:47:51
FNX408 LESO ProSimA322... 2024-03-04 17:22:50
FNXBAFA02 LEPA 737NG Seri... 2024-03-03 22:21:09
FNXBAFA02 LEPA PMDG 737-8... 2024-03-03 22:05:32
FNXBAFA02 LEPA PMDG 737-8... 2024-03-03 16:16:15
FNX03LIG LEJR PMDG 737-8... 2024-03-03 16:28:59
FNXBAFA02 LEPA PMDG 737-8... 2024-03-02 22:20:35
FNXBAFA02 LEPA Airbus A32... 2024-03-02 10:44:49
FNX209 SVMI 747-400 2024-03-02 01:06:23
FNX101 LEPA PMDG 737-8... 2024-03-02 22:14:09
FNXBAFA02 LEPA FenixA320... 2024-03-01 20:11:46
FNX209 LEIB B737-800X... 2024-02-26 22:01:54
FNX101 LEAS PMDG 737-8... 2024-02-25 10:18:44
FNX209 LEIB B737-800X... 2024-02-24 08:02:38
FNX03LIG LEJR PMDG 737-8... 2024-01-28 16:12:03
FNXPARTN20 LEAS PMDG 737-8... 2024-01-25 12:23:43
FNX102 LECO PMDG 737-8... 2024-01-19 08:35:25
FNXTM01 LXGB PMDG 737-8... 2024-01-18 22:59:21
FNX03LIG LEJR PMDG 737-8... 2024-01-16 11:54:55
FNX403 LEIB PMDG 737-8... 2024-01-03 14:36:45
FNX211 LEVX PMDG 737-8... 2023-12-29 05:43:42
FNX207 LEMD PMDG 737-8... 2023-12-29 18:19:46
FNX102 LEMD PMDG 737-8... 2023-12-29 17:49:14
FNX403 LICJ PMDG 737-8... 2023-12-28 22:43:02
FNX403 LEPA PMDG 737-8... 2023-12-20 11:58:37
FNX207 LEPA PMDG 737-8... 2023-12-20 11:52:36
FNX403 LEIB PMDG 737-8... 2023-12-19 10:33:27
FNX301 GCXO PMDG 737-8... 2023-12-17 07:49:08
FNX302 GCXO PMDG 737-8... 2023-12-16 16:24:33
FNX207 GCXO PMDG 737-8... 2023-12-16 17:18:12
FNX102 LEBB PMDG 737-8... 2023-12-14 09:34:56
FNX300 LFMP PC-12 D-FE... 2023-11-30 20:11:30
FNX101 LEVX PMDG 737-8... 2023-11-01 21:55:52
FNX300 LEMH Beechcraft... 2023-09-23 09:33:16

Historial de llegadas (últimos 12 meses)

Nº vuelo. Origen Aeronave Fecha
FNX403 LEBB PMDG 737-8... 2024-07-18 10:36:35
FNX403 LEIB PMDG 737-8... 2024-07-13 11:48:08
FNX403 LEIB PMDG 737-8... 2024-07-11 12:43:41
FNX403 LEMH PMDG 737-8... 2024-07-09 10:28:59
FNX202 LEST FNX_320_CF... 2024-07-03 16:17:04
FNX408 LXGB ProSimA322... 2024-06-28 20:26:03
FNX403 LEIB PMDG 737-8... 2024-06-12 15:40:16
FNXIE08 LEBZ Fenix A320... 2024-05-06 15:46:39
FNX209 LEIB Carenado A... 2024-05-01 21:15:33
FNXPARTN19 LEPA Black Squa... 2024-04-26 18:25:12
FNX200 GEML PMDG 737-7... 2024-04-21 11:05:23
FNXPARTN19 LEPA PMDG 737-8... 2024-03-31 18:52:57
FNX1019 LEMD Fenix A320... 2024-03-25 17:05:55
FNX205 LEPA PMDG 737-8... 2024-03-23 13:29:44
FNX209 LEIB 737NG Seri... 2024-03-17 18:04:19
FNX209 LPMA Super 80 W... 2024-03-17 11:53:15
FNX209 LEIB Boeing 737... 2024-03-13 23:33:25
FNX04LIG LEJR Fenix A320... 2024-03-12 13:15:59
FNXIE08 LEBZ PMDG 737-8... 2024-03-08 10:03:31
FNXBAFA01 EGBB PMDG 737-8... 2024-03-06 11:19:47
FNXBAFA01 EGBB PMDG 737-8... 2024-03-05 12:09:44
FNXBAFA01 EGBB PMDG 737-8... 2024-03-05 12:04:52
FNXBAFA01 EGBB Cessna Lon... 2024-03-04 19:21:01
FNX04LIG LEJR PMDG 737-8... 2024-03-04 11:25:28
FNXBAFA01 EGBB Fly The Ma... 2024-03-03 19:49:52
FNX408 LEIB ProSimA322... 2024-03-03 19:27:27
FNX205 EGBB PMDG 737-8... 2024-03-02 23:40:07
FNXBAFA01 EGBB Airbus A32... 2024-03-01 20:28:28
FNXBAFA01 EGBB PMDG 737-8... 2024-03-01 19:30:46
FNXBAFA01 EGBB FenixA320... 2024-03-01 15:50:23
FNXBAFA01 EGBB PMDG 737-8... 2024-03-01 11:05:49
FNXBAFA01 EGBB 737NG Seri... 2024-03-01 11:04:13
FNXBAFA01 EGBB PMDG 737-8... 2024-03-01 01:00:36
FNX209 KMIA 747-400 2024-02-26 09:24:59
FNX209 LEIB B737-800X... 2024-02-24 19:56:55
FNX209 LEIB B737-800X... 2024-02-24 00:26:22
FNX206 LEMD FenixA320... 2024-02-22 00:25:49
FNXMRY03 DTTA PMDG 737-8... 2024-01-29 18:34:22
FNX04LIG LEJR PMDG 737-8... 2024-01-28 19:29:56
FNXPARTN19 LEPA PMDG 737-8... 2024-01-25 12:15:14
FNXMRY03 DTTA Airbus A32... 2024-01-21 08:54:39
FNX04LIG LEJR PMDG 737-8... 2024-01-16 15:21:06
FNX403 LEMH PMDG 737-8... 2024-01-15 11:42:26
FNXMRY03 DTTA PMDG 737-8... 2024-01-14 00:47:36
FNX101 LEIB SR 22 Kenm... 2024-01-14 11:52:56
FNXMRY03 DTTA PMDG 737-8... 2024-01-07 13:40:47
FNXMRY03 DTTA Boeing 747... 2024-01-04 15:08:46
FNX403 LICJ PMDG 737-8... 2024-01-03 11:50:27
FNXMRY03 DTTA PMDG 737-8... 2024-01-02 15:47:59
FNX403 LEPA PMDG 737-8... 2023-12-27 18:48:38
FNX211 LEMD PMDG 737-8... 2023-12-27 17:44:21
FNX102 LEMD PMDG 737-8... 2023-12-27 18:10:42
FNX207 LEJR PMDG 737-8... 2023-12-22 13:14:52
FNX403 LEIB PMDG 737-8... 2023-12-20 11:11:08
FNX207 LEIB PMDG 737-8... 2023-12-20 11:36:32
FNX403 LEPA PMDG 737-8... 2023-12-19 00:56:08
FNX400 LEPA FenixA320... 2023-12-15 11:47:30
FNX102 LEIB PMDG 737-8... 2023-12-13 11:36:38
FNX300 LYBE Airbus A32... 2023-11-30 12:41:08
FNX300 LEPP Beechcraft... 2023-09-13 19:23:01

Información de pista (Elevación del aeropuerto: 208ft)

Pista 12 Longitud 10,527ft Anchura 150ft Elevación 208ft Superficie Bituminous Rumbo 116
Pista 30 Longitud 10,527ft Anchura 150ft Elevación 208ft Superficie Bituminous Rumbo 296

Frecuencias del aeropuerto

Tipo APP/DEP Frecuencia 119.075 Mhz
Tipo APP/DEP Frecuencia 120.100 Mhz
Tipo APP/DEP Frecuencia 124.750 Mhz
Tipo ATIS Frecuencia 121.080 Mhz
Tipo Clearance Frecuencia 123.580 Mhz
Tipo Ground Frecuencia 121.880 Mhz
Tipo Tower Frecuencia 118.555 Mhz
Tipo Tower Frecuencia 121.880 Mhz
Tipo Tower Frecuencia 123.580 Mhz
Tipo Tower Frecuencia 125.480 Mhz
Tipo APP/DEP Frecuencia 118.800 Mhz
Tipo APP/DEP Frecuencia 120.400 Mhz
Tipo ATIS Frecuencia 121.075 Mhz
Tipo Clearance Frecuencia 123.575 Mhz
Tipo Ground Frecuencia 121.875 Mhz
Tipo Tower Frecuencia 118.550 Mhz

Radioayudas del aeropuerto

Tipo NDB Identif. B Frecuencia 400 Khz
Tipo NDB Identif. PND Frecuencia 340 Khz
Tipo NDB Identif. SGO Frecuencia 356 Khz
Tipo VOR-DME Identif. VLC Frecuencia 116100 Khz